Location: Piotrkow Trybunalski
(51.4000°N, 19.6830°E)
Time: 17:14:36
(UTC+01:00)

Explorer 7 - Pass Details

Date: 30 January 2023
Orbit: 478 x 657 km, 50.3° (Epoch: 19 March)

Event Time Altitude Azimuth Distance (km) Brightness Sun altitude
Rises 19:00:05 0° 283° (WNW) 2,921 11.9 -23.8°
Reaches altitude 10° 19:02:43 10° 270° (W) 2,034 10.8 -24.2°
Maximum altitude 19:06:28 24° 216° (SW) 1,344 9.1 -24.8°
Enters shadow 19:08:29 18° 181° (S) 1,583 9.1 -25.1°
